Location: ??????
(30.0081°N, 31.2109°E)
Time: 11:52:13
(UTC+00:00)

Meteor 2-4 Rocket - Pass Details

Date: 03 March 2021
Orbit: 799 x 908 km, 81.2° (Epoch: 15 April)

Event Time Altitude Azimuth Distance (km) Brightness Sun altitude
Rises 17:08:22 0° 357° (N) 3,504 7.0 -16.5°
Reaches altitude 10° 17:10:51 10° 1° (N) 2,572 6.2 -17.1°
Maximum altitude 17:16:40 62° 81° (E) 1,015 3.8 -18.3°
Drops below altitude 10° 17:22:31 10° 162° (SSE) 2,582 6.0 -19.6°
Sets 17:25:00 0° 165° (SSE) 3,518 6.7 -20.1°
